Date String (YYYY-MM-DD hh:mm:ss) UTC,Instrument flags,Ambient pressure (hPa),Sample flow (lpm),Bypass flow (lpm),Sample temperature (°C),Ambient temperature (°C),ASC tube jacket temperature (°C),LED temperature (°C),Box temperature (°C),Sample RH (%),Span deviation,Mass concentration (μg/m³),Mass concentration (μg/m³),Mass concentration (μg/m³)
DateTimeUTC,F1_M11,P_M11,Q1_M11,Q2_M11,T1_M11,T2_M11,T3_M11,T4_M11,T5_M11,U1_M11,ZSPAN_M11,X0_M11,X2_M11,X1_M11
2021-11-02 15:00:00,,0831.7,4.99,0.00,23.1,22.3,00.0,32.2,24.9,21.3,-000.8,0015.44,0009.17,0008.29
2021-11-02 15:01:00,,0831.7,5.02,0.00,23.1,22.3,00.0,32.2,25.0,21.3,-000.7,0014.36,0009.16,0008.25
2021-11-02 15:02:00,,0831.6,4.99,0.00,23.1,22.3,00.0,32.2,24.9,21.3,-000.7,0013.86,0009.10,0008.21
2021-11-02 15:03:00,,0831.6,5.02,0.00,23.1,22.3,00.0,32.2,24.9,21.3,-000.7,0014.14,0009.05,0008.18
2021-11-02 15:04:00,,0831.6,4.99,0.00,23.1,22.3,00.0,32.2,24.9,21.3,-000.7,0013.71,0009.01,0008.15
2021-11-02 15:05:00,,0831.6,4.99,0.00,23.1,22.3,00.0,32.2,25.0,21.4,-000.6,0013.51,0009.00,0008.16
2021-11-02 15:06:00,,0831.6,5.00,0.00,23.1,22.3,00.0,32.2,25.0,21.3,-000.6,0013.42,0009.02,0008.18
2021-11-02 15:07:00,,0831.6,5.01,0.00,23.1,22.3,00.0,32.2,25.0,21.3,-000.6,0013.36,0009.09,0008.24
2021-11-02 15:08:00,,0831.7,5.00,0.00,23.1,22.3,00.0,32.2,25.0,21.4,-000.8,0013.76,0009.21,0008.30
2021-11-02 15:09:00,,0831.7,5.00,0.00,23.1,22.3,00.0,32.2,25.0,21.4,-001.0,0014.17,0009.37,0008.37
2021-11-02 15:10:00,,0831.6,5.01,0.00,23.1,22.3,00.0,32.2,25.0,21.4,-001.1,0014.19,0009.47,0008.46
2021-11-02 15:11:00,,0831.6,4.99,0.00,23.1,22.3,00.0,32.2,25.0,21.4,-001.3,0014.05,0009.58,0008.54
2021-11-02 15:12:00,,0831.6,5.00,0.00,23.1,22.3,00.0,32.2,24.9,21.4,-001.2,0014.20,0009.63,0008.61
2021-11-02 15:13:00,,0831.6,5.00,0.00,23.1,22.3,00.0,32.2,24.9,21.4,-001.1,0014.22,0009.69,0008.68
2021-11-02 15:14:00,,0831.6,5.00,0.00,23.1,22.3,00.0,32.2,25.0,21.4,-000.9,0013.73,0009.73,0008.73
2021-11-02 15:15:00,,0831.6,5.00,0.00,23.1,22.3,00.0,32.2,25.0,21.4,-000.7,0013.98,0009.76,0008.76
2021-11-02 15:16:00,,0831.6,4.99,0.00,23.1,22.3,00.0,32.2,24.9,21.4,-000.8,0014.03,0009.80,0008.76
2021-11-02 15:17:00,,0831.6,5.01,0.00,23.2,22.3,00.0,32.2,25.0,21.5,-000.6,0014.61,0009.81,0008.78
2021-11-02 15:18:00,,0831.7,4.99,0.00,23.2,22.3,00.0,32.2,25.0,22.2,-000.4,0014.57,0009.84,0008.78
2021-11-02 15:19:00,,0831.7,5.01,0.00,23.2,22.4,00.0,32.2,25.0,23.7,-000.3,0014.72,0009.85,0008.81
2021-11-02 15:20:00,,0831.7,4.99,0.00,23.2,22.3,00.0,32.2,25.0,22.5,-000.4,0014.95,0009.85,0008.82
2021-11-02 15:21:00,,0831.6,4.99,0.00,23.2,22.4,00.0,32.2,25.0,21.9,-000.3,0015.17,0009.87,0008.82
2021-11-02 15:22:00,,0831.6,5.02,0.00,23.2,22.4,00.0,32.2,25.0,21.8,-000.1,0015.63,0009.86,0008.81
2021-11-02 15:23:00,,0831.6,4.99,0.00,23.2,22.4,00.0,32.2,25.0,21.6,-000.1,0016.50,0009.86,0008.81
2021-11-02 15:24:00,,0831.5,5.02,0.00,23.2,22.4,00.0,32.2,25.0,21.5,-000.0,0016.73,0009.90,0008.83
2021-11-02 15:25:00,,0831.6,5.00,0.00,23.2,22.4,00.0,32.2,25.0,21.4,-000.1,0016.81,0009.93,0008.85
2021-11-02 15:26:00,,0831.6,5.00,0.00,23.2,22.4,00.0,32.2,25.0,21.4,-000.2,0016.80,0009.97,0008.86
2021-11-02 15:27:00,,0831.6,5.00,0.00,23.2,22.4,00.0,32.2,25.0,21.4,0000.0,0016.86,0009.96,0008.87
2021-11-02 15:28:00,,0831.6,5.00,0.00,23.2,22.4,00.0,32.2,25.0,21.3,0000.0,0016.56,0009.98,0008.88
2021-11-02 15:29:00,,0831.6,5.00,0.00,23.2,22.4,00.0,32.2,25.0,21.3,-000.3,0016.46,0010.00,0008.89
2021-11-02 15:30:00,,0831.7,5.01,0.00,23.2,22.4,00.0,32.2,25.0,21.3,-000.3,0016.26,0010.00,0008.91
2021-11-02 15:31:00,,0831.7,5.00,0.00,23.2,22.4,00.0,32.2,25.0,21.3,-000.1,0016.50,0010.00,0008.92
2021-11-02 15:32:00,,0831.7,4.99,0.00,23.2,22.4,00.0,32.2,25.0,21.3,-000.4,0016.54,0010.04,0008.93
2021-11-02 15:33:00,,0831.7,5.01,0.00,23.2,22.4,00.0,32.2,25.0,21.3,-000.8,0016.82,0010.10,0008.96
2021-11-02 15:34:00,,0831.7,5.00,0.00,23.2,22.4,00.0,32.2,25.0,21.2,-001.2,0016.03,0010.10,0008.97
2021-11-02 15:35:00,,0831.7,5.01,0.00,23.2,22.4,00.0,32.2,25.0,21.2,-001.3,0015.90,0010.14,0008.97
2021-11-02 15:36:00,,0831.6,4.99,0.00,23.2,22.4,00.0,32.2,25.0,21.1,-001.2,0016.12,0010.17,0008.96
2021-11-02 15:37:00,,0831.7,5.00,0.00,23.2,22.4,00.0,32.2,25.0,21.1,-001.4,0016.24,0010.14,0008.93
2021-11-02 15:38:00,,0831.7,4.99,0.00,23.2,22.4,00.0,32.2,25.0,21.1,-001.7,0015.99,0010.11,0008.91
2021-11-02 15:39:00,,0831.7,5.00,0.00,23.2,22.4,00.0,32.2,25.0,21.1,-001.9,0015.93,0010.10,0008.88
2021-11-02 15:40:00,,0831.6,5.00,0.00,23.2,22.4,00.0,32.2,25.0,21.1,-001.9,0016.22,0010.14,0008.87
2021-11-02 15:41:00,,0831.6,5.00,0.00,23.2,22.4,00.0,32.2,25.0,21.1,-002.1,0016.61,0010.12,0008.84
2021-11-02 15:42:00,,0831.6,5.00,0.00,23.2,22.4,00.0,32.2,25.0,21.1,-002.0,0016.25,0010.13,0008.81
2021-11-02 15:43:00,,0831.6,5.00,0.00,23.2,22.4,00.0,32.2,25.0,21.1,-001.5,0016.53,0010.09,0008.79
2021-11-02 15:44:00,,0831.5,5.00,0.00,23.2,22.4,00.0,32.2,25.0,21.2,-001.3,0015.87,0009.98,0008.74
2021-11-02 15:45:00,,0831.5,5.00,0.00,23.2,22.4,00.0,32.2,25.0,21.2,-000.9,0015.86,0009.94,0008.72
2021-11-02 15:46:00,,0831.5,5.01,0.00,23.2,22.4,00.0,32.2,25.0,21.2,-000.7,0015.64,0009.88,0008.72
2021-11-02 15:47:00,,0831.5,5.00,0.00,23.2,22.4,00.0,32.2,25.0,21.2,-000.8,0016.37,0009.86,0008.73
2021-11-02 15:48:00,,0831.5,5.00,0.00,23.2,22.4,00.0,32.2,25.0,21.2,-000.5,0016.41,0009.93,0008.82
2021-11-02 15:49:00,,0831.5,5.00,0.00,23.2,22.4,00.0,32.2,25.0,21.2,-000.2,0016.50,0009.99,0008.91
2021-11-02 15:50:00,,0831.5,4.99,0.00,23.2,22.4,00.0,32.2,25.0,21.2,-000.2,0016.62,0010.07,0009.00
2021-11-02 15:51:00,,0831.5,5.01,0.00,23.2,22.4,00.0,32.2,25.0,21.2,-000.1,0016.30,0010.04,0009.06
2021-11-02 15:52:00,,0831.5,5.01,0.00,23.2,22.4,00.0,32.2,25.0,21.3,0000.1,0016.37,0010.03,0009.12
2021-11-02 15:53:00,,0831.5,5.00,0.00,23.2,22.4,00.0,32.2,25.0,21.4,-000.1,0016.64,0010.06,0009.17
2021-11-02 15:54:00,,0831.5,5.00,0.00,23.2,22.4,00.0,32.2,25.0,21.4,-000.4,0016.10,0010.05,0009.19
2021-11-02 15:55:00,,0831.5,5.00,0.00,23.2,22.4,00.0,32.2,25.0,21.3,-000.7,0016.28,0010.11,0009.23
2021-11-02 15:56:00,,0831.5,5.02,0.00,23.2,22.4,00.0,32.2,25.0,21.4,-000.4,0016.32,0010.14,0009.25
2021-11-02 15:57:00,,0831.5,4.98,0.00,23.2,22.4,00.0,32.2,25.0,21.4,-000.5,0016.65,0010.16,0009.25
2021-11-02 15:58:00,,0831.5,5.01,0.00,23.2,22.4,00.0,32.2,25.0,21.4,-000.5,0015.87,0010.18,0009.26
2021-11-02 15:59:00,,0831.5,5.00,0.00,23.2,22.4,00.0,32.2,25.0,21.5,-000.5,0015.95,0010.14,0009.22
